Location: Caumartin
(50.2617°N, 1.8346°E)
Time: 23:53:29
(UTC+00:00)

Daily predictions for brighter satellites

Satellite Brightness Start Highest point End
(mag) Time Altitude Azimuth Time Altitude Azimuth Time Altitude Azimuth
USA 229 DEB 4.1 17:03:16 10° NW 17:10:17 54° NE 17:17:43 10° ESE
USA 229 4.1 17:03:23 10° NW 17:10:23 54° NE 17:17:48 10° ESE
CORIOLIS 4.1 17:06:14 10° SSE 17:11:36 78° ENE 17:17:00 10° NNW
Okean O Rocket 1.6 17:08:50 10° SSE 17:13:14 70° ENE 17:17:39 10° N
SL-24 R/B 4.3 17:10:03 10° SSE 17:14:33 85° ENE 17:19:34 10° NNW
Cosmos 1340 4.3 17:12:48 10° SE 17:15:06 16° E 17:17:25 10° NE
Cosmos 1812 Rocket 4.5 17:12:42 10° N 17:16:27 26° ENE 17:20:09 10° SE
Cosmos 1455 2.3 17:16:17 10° N 17:20:03 51° ENE 17:23:48 10° SSE
SeaSat 1 3.2 17:16:32 10° NNE 17:21:21 54° NW 17:26:08 10° SW
Okean-O 3.7 17:18:03 10° ESE 17:21:32 23° ENE 17:25:02 10° N
Cosmos 158 Rocket 4.1 17:16:44 10° NNW 17:22:08 83° ENE 17:27:32 10° SSE
YAOGAN 6 4.5 17:19:01 10° SSW 17:22:21 35° W 17:25:44 10° NNW
SKYMED 2 4.4 17:21:19 10° NNE 17:25:09 29° E 17:28:57 10° SSE
USA 290 3.9 17:23:05 10° N 17:25:09 16° NE 17:27:13 10° E
Cosmos 2263 Rocket 3.5 17:20:19 10° WSW 17:25:32 36° NW 17:30:46 10° NNE
Helios 1A Rocket 4.3 17:22:41 10° ESE 17:25:34 19° ENE 17:28:27 10° NNE
NOSS 3-1 (A) 4.1 17:18:51 10° NW 17:25:53 57° NE 17:34:10 10° ESE
CZ-2C R/B 3.5 17:21:19 10° SE 17:26:31 45° ENE 17:31:57 10° N
H-2A R/B 3.2 17:22:29 10° S 17:26:35 61° WSW 17:30:53 10° NNW
Aureole 2 Rocket 2.4 17:24:07 10° SSW 17:27:11 67° WNW 17:30:18 10° NNE
ARGOS 4.2 17:23:23 10° ESE 17:27:29 23° ENE 17:31:37 10° N
CZ-2D R/B 3.7 17:24:25 10° SE 17:27:58 38° ENE 17:31:33 10° N
Lacrosse 5 3.6 17:25:10 10° WNW 17:29:46 35° SW 17:34:19 10° SSE
ATLAS 2AS CENTAUR R/B 4.0 17:25:29 10° W 17:32:43 37° NNW 17:39:43 10° NE
CZ-2C R/B 4.4 17:31:46 11° ENE 17:33:43 12° E 17:36:02 10° ESE
Cosmos 1939 Rocket 2.8 17:30:56 10° SSE 17:34:59 68° ENE 17:39:02 10° N
Aureole 3 Rocket 3.3 17:39:29 10° NNE 17:42:13 27° ENE 17:45:19 10° SE
Feng Yun 1-1 Rocket 4.2 17:37:00 10° SSE 17:42:26 70° ENE 17:48:04 10° NNW
Meteor 1-21 Rocket 4.2 17:37:03 10° S 17:42:27 58° E 17:47:57 10° NNE
Cosmos 2058 Rocket 3.9 17:39:42 10° NNW 17:44:08 57° W 17:48:33 10° S
Iridium 4 Rocket 4.0 17:40:47 10° N 17:45:56 39° ENE 17:50:41 10° SE
Cosmos 1092 Rocket 4.2 17:40:47 10° SSE 17:46:41 49° E 17:52:33 10° NNE
Meteor 2-10 Rocket 4.4 17:43:00 10° NNW 17:48:18 54° W 17:53:22 10° S
ISS -3.8 17:46:03 10° WSW 17:49:27 85° NNW 17:51:38 20° ENE
Cosmos 2344 4.2 17:41:45 10° NW 17:50:36 71° NE 18:02:53 10° SE
USA 234 3.7 17:47:42 14° ENE 17:53:08 50° N 17:59:25 10° WNW
Cosmos 405 3.4 17:51:09 10° N 17:54:30 38° ENE 17:57:49 10° SE
Cosmos 1626 Rocket 3.5 17:50:44 10° S 17:55:05 67° E 17:59:31 10° NNE
BREEZE-M DEB (TANK) 1.7 17:54:26 10° W 17:56:42 73° S 17:57:53 25° ESE
Cosmos 1833 Rocket 2.8 17:51:58 10° NNW 17:57:30 53° NE 18:02:58 10° SE
Nadezhda 4 Rocket 4.0 17:51:18 10° S 17:57:32 89° E 18:03:44 10° N
CZ-4 R/B 1.5 17:55:55 10° SE 17:59:49 50° ENE 18:03:41 10° N
Cosmos 44 3.3 17:55:49 10° SSW 18:00:38 72° SE 18:04:50 16° NE
COSMOS 2406 3.2 18:00:37 10° NNW 18:06:24 68° ENE 18:12:09 10° SE
Aureole 3 3.8 18:03:42 10° NNW 18:06:49 45° W 18:09:39 10° S
NOSS 2-1 (E) 3.1 18:03:43 10° SSW 18:06:57 51° SE 18:08:25 28° ENE
Cosmos 1898 Rocket 3.5 18:02:12 10° S 18:07:22 63° ESE 18:12:33 10° NNE
Cosmos 1703 3.1 18:04:37 10° S 18:08:29 77° E 18:12:22 10° NNE
X-37B 2.0 18:05:53 10° WSW 18:08:45 31° S 18:10:23 19° SE
Cosmos 1680 Rocket 4.1 18:04:07 10° NNW 18:09:17 61° WSW 18:14:24 10° S
Cosmos 2082 Rocket 2.6 18:07:25 10° NNW 18:12:51 42° NE 18:16:36 19° ESE
Cosmos 1689 Rocket 3.4 18:14:21 24° SE 18:14:21 24° SE 18:15:55 10° SSE
COSMO-SKYMED 1 2.5 18:09:02 10° NNE 18:13:26 85° ESE 18:17:46 10° SSW
COSMOS 2455 3.8 18:07:45 10° WSW 18:13:31 44° NW 18:19:18 10° NNE
Cosmos 1844 4.0 18:08:43 10° SW 18:14:24 69° WNW 18:20:10 10° NNE
Meteor 2-15 4.4 18:10:38 10° N 18:16:45 61° ENE 18:22:50 10° SSE
Cosmos 1844 Rocket 3.3 18:11:19 10° SW 18:16:52 56° NW 18:22:27 10° NNE
Meteor 2-8 Rocket 4.4 18:12:17 10° N 18:18:25 85° E 18:24:33 10° S
TELKOM 3 2.8 18:17:10 10° W 18:19:20 78° SW 18:19:20 78° SW
Cosmos 1758 Rocket 3.7 18:16:17 10° S 18:20:37 51° E 18:24:59 10° NNE
Cosmos-2242 3.0 18:16:42 10° N 18:20:56 58° ENE 18:25:11 10° SSE
PSLV R/B 4.1 18:17:17 12° NNE 18:21:05 53° E 18:25:11 10° S
Cosmos 2098 Rocket 4.3 18:20:06 10° S 18:27:24 67° E 18:34:32 10° NNE
Cosmos 1346 Rocket 3.1 18:24:10 10° SSE 18:27:48 40° E 18:27:48 40° E
CZ-4B R/B 2.3 18:26:58 10° N 18:30:12 48° WNW 18:33:21 10° SSW
H-2A R/B 1.9 18:25:59 10° SSE 18:31:03 84° ENE 18:36:18 10° NNW
Cosmos 1417 Rocket 4.5 18:26:34 10° N 18:32:42 57° ENE 18:38:51 10° SSE
Cosmos 1937 Rocket 3.4 18:27:49 10° SSW 18:33:07 75° ESE 18:37:18 17° NNE
Cosmos 2026 Rocket 3.9 18:27:02 10° S 18:33:11 81° E 18:39:27 10° NNE
H-2A R/B 4.0 18:30:18 10° N 18:34:07 29° WNW 18:37:51 10° WSW
ATLAS 5 CENTAUR R/B 3.7 18:32:26 10° WNW 18:35:47 20° N 18:38:05 15° NNE
Cosmos 1553 Rocket 3.9 18:29:49 10° N 18:36:14 69° ENE 18:42:32 10° SSE
Cosmos 1602 Rocket 4.0 18:33:29 10° SSW 18:37:48 63° WNW 18:42:12 10° N
CSL-04 Rocket 3.6 18:33:17 10° SSE 18:38:41 69° ENE 18:44:11 10° NNW
Cosmos 2278 Rocket 2.3 18:36:12 10° S 18:41:43 55° ESE 18:44:02 33° NE
YAOGAN 1 2.8 18:38:16 10° S 18:42:34 71° WSW 18:46:56 10° NNW
ERS-2 2.2 18:41:50 25° N 18:43:50 77° WNW 18:47:27 10° SSW
MOS 1 Rocket 3.6 18:40:18 10° N 18:44:32 59° WNW 18:48:46 10° SSW
SJ 16-02 3.3 18:42:31 10° WSW 18:46:16 27° NW 18:50:02 10° N
Meteor 2-15 Rocket 4.3 18:42:43 10° N 18:48:56 82° E 18:55:05 10° SSE
CZ-4C R/B 3.9 18:44:02 10° NW 18:49:07 26° N 18:51:43 21° NE
CZ-3B R/B 3.1 18:46:54 10° WNW 18:49:46 47° SSW 18:58:22 10° SE
Cosmos 1340 3.6 18:46:42 10° SSW 18:50:19 46° WNW 18:53:35 12° N
Cosmos 1825 Rocket 3.4 18:49:04 10° S 18:53:27 80° E 18:55:29 32° NNE
NOSS 2-1 (C) 3.6 18:52:54 10° WSW 18:56:08 49° NW 18:56:22 48° NNW
Okean-O 3.5 18:53:26 10° S 18:57:44 49° W 19:02:04 10° NNW
USA 290 3.3 18:56:42 10° NW 18:59:47 43° WSW 19:00:05 41° SW
Cosmos 1655 Rocket 4.0 18:53:49 10° SSE 18:59:49 54° E 19:05:51 10° NNE
Helios 1A Rocket 3.5 18:56:15 10° S 19:00:20 58° WSW 19:04:27 10° NNW
S3M 3.8 18:55:27 10° N 19:01:35 73° E 19:07:42 10° SSE
NOSS 2-1 (D) 3.8 18:58:54 10° WSW 19:02:06 44° NW 19:02:09 43° NW
HJ-1C 4.4 19:07:21 44° WNW 19:07:21 44° WNW 19:10:04 10° NNW
ARGOS 3.4 19:01:56 10° S 19:07:17 70° WSW 19:12:41 10° NNW
Meteor 1-11 4.4 19:02:47 10° SSW 19:08:27 72° WNW 19:14:06 10° N
SAR-Lupe-4 4.5 19:08:27 42° NW 19:09:04 48° WNW 19:12:31 10° SW
CZ-2C R/B 2.6 19:13:15 45° NNE 19:14:58 72° ESE 19:20:35 10° S
NOSS 2-2 (E) 4.3 19:17:12 10° NW 19:22:27 72° NE 19:22:58 68° E
Ariane Rocket 4.0 19:26:14 34° N 19:26:14 34° N 19:29:08 10° N
ATLAS 2AS CENTAUR R/B 4.0 19:19:08 10° NW 19:25:50 30° N 19:27:37 27° NNE
ISS -1.5 19:23:01 10° WNW 19:24:37 25° WNW 19:24:37 25° WNW
CZ-4 R/B 4.2 19:32:21 10° SW 19:35:07 18° W 19:37:52 10° NW
USA 234 3.3 19:35:03 58° NE 19:35:39 60° NNE 19:42:05 10° WNW
Cosmos 1833 Rocket 4.4 19:36:19 10° NW 19:41:11 31° WSW 19:46:02 10° SSW
X-37B 4.1 19:42:36 10° WSW 19:42:41 10° WSW 19:42:41 10° WSW
Cosmos 2082 Rocket 3.3 19:51:37 10° NW 19:56:58 42° WSW 19:58:31 34° SW
USA 281 4.0 19:59:32 38° N 19:59:32 38° N 20:03:44 10° NNW
ATLAS 5 CENTAUR R/B 4.3 20:18:20 10° NW 20:19:37 15° NNW 20:19:37 15° NNW
Cosmos 2278 Rocket 3.6 20:20:59 10° WSW 20:25:56 33° NW 20:25:56 33° NW
CZ-4C R/B 4.0 20:33:11 10° NW 20:36:54 30° NNW 20:36:54 30° NNW
ATLAS 2AS CENTAUR R/B 4.4 21:11:15 10° NW 21:15:03 29° NNW 21:15:03 29° NNW
